GW0614 Weather Reports


Display with metric or nautical units.
time (UTC)temp
F
wind
direction
speed
MPH
gust
MPH
rain 1hr
in
rain 24hr
in
rain mn
in
humidity
%
barometer
mb
20260903031822 64 344 0.0 0.0 0.00 0.00 0.00 99 1021.2
20260903031321 64 344 0.0 0.0 0.00 0.00 0.00 98 1021.3
20260903030817 64 344 0.0 0.0 0.00 0.00 0.00 98 1021.0
20260903030313 64 344 0.0 0.0 0.00 0.00 0.00 97 1020.6
20260903025808 64 344 0.0 0.0 0.00 0.00 0.00 96 1021.0
20260903025306 64 340 1.0 1.0 0.00 0.00 0.00 98 1020.9
20260903024758 63 341 0.0 0.0 0.00 0.00 0.00 99 1020.8
20260903024258 63 341 0.0 0.0 0.00 0.00 0.00 99 1020.8
20260903023753 63 341 0.0 0.0 0.00 0.00 0.00 99 1021.1
20260903023248 63 341 0.0 0.0 0.00 0.00 0.00 99 1021.4
20260903022743 63 341 0.0 0.0 0.00 0.00 0.00 99 1021.4
20260903022242 63 341 0.0 0.0 0.00 0.00 0.00 99 1021.7
20260903021742 63 341 0.0 0.0 0.00 0.00 0.00 99 1021.9
20260903021237 63 341 0.0 0.0 0.00 0.00 0.00 99 1022.2
20260903020737 63 341 0.0 0.0 0.00 0.00 0.00 99 1022.2
20260903020231 63 341 0.0 0.0 0.00 0.00 0.00 99 1022.4
20260903015727 63 341 0.0 0.0 0.00 0.00 0.00 99 1022.4
20260903015222 63 341 0.0 0.0 0.00 0.00 0.00 99 1022.7
20260903014718 63 341 0.0 0.0 0.00 0.00 0.00 99 1022.6
20260903014217 63 341 0.0 0.0 0.00 0.00 0.00 99 1022.4
20260903013712 63 341 0.0 0.0 0.00 0.00 0.00 99 1022.2
20260903013211 63 341 0.0 0.0 0.00 0.00 0.00 99 1022.3
20260903012709 63 341 0.0 0.0 0.00 0.00 0.00 99 1022.5
20260903012204 64 341 0.0 0.0 0.00 0.00 0.00 99 1022.8
20260903011658 64 341 0.0 0.0 0.00 0.00 0.00 99 1022.9
20260903011152 64 341 0.0 0.0 0.00 0.00 0.00 99 1023.0
20260903010647 64 341 0.0 0.0 0.00 0.00 0.00 99 1022.5
20260903010146 64 341 0.0 0.0 0.00 0.00 0.00 99 1023.1
20260903005641 64 341 0.0 0.0 0.00 0.00 0.00 99 1022.9
20260903005136 64 341 0.0 0.0 0.00 0.00 0.00 98 1022.6
20260903004631 64 341 0.0 0.0 0.00 0.00 0.00 98 1022.6
20260903004126 64 341 0.0 0.0 0.00 0.00 0.00 96 1022.6
20260903003622 64 341 0.0 0.0 0.00 0.00 0.00 95 1022.1
20260903003117 64 341 0.0 0.0 0.00 0.00 0.00 93 1021.7
20260903002612 64 341 0.0 0.0 0.00 0.00 0.00 97 1021.2
20260903002106 64 341 0.0 0.0 0.00 0.00 0.00 97 1021.1
20260903001601 64 341 0.0 0.0 0.00 0.00 0.00 95 1021.3
20260903001101 64 341 0.0 0.0 0.00 0.00 0.00 97 1021.1
20260903000557 64 358 0.0 0.0 0.00 0.00 0.00 99 1021.5
20260903000056 64 358 0.0 0.0 0.00 0.00 0.00 99 1021.3
20260902235555 64 358 0.0 0.0 0.00 0.00 0.00 99 1021.7
20260902235050 65 358 0.0 0.0 0.00 0.00 0.00 99 1021.9
20260902234544 65 358 0.0 0.0 0.00 0.00 0.00 99 1022.0
20260902234043 65 358 0.0 0.0 0.00 0.00 0.00 99 1022.1
20260902233538 65 358 0.0 0.0 0.00 0.00 0.00 99 1022.3
20260902233033 65 358 0.0 0.0 0.00 0.00 0.00 99 1022.1
20260902232532 66 358 0.0 0.0 0.00 0.00 0.00 99 1022.0
20260902232026 66 358 0.0 0.0 0.00 0.00 0.00 99 1022.2
20260902231520 66 358 0.0 0.0 0.00 0.00 0.00 99 1022.4
20260902231015 66 358 0.0 0.0 0.00 0.00 0.00 99 1022.0
20260902230514 66 358 0.0 0.0 0.00 0.00 0.00 99 1022.2
20260902230009 67 358 0.0 0.0 0.00 0.00 0.00 99 1022.1
20260902225504 67 358 0.0 0.0 0.00 0.00 0.00 99 1022.5
20260902225004 67 358 0.0 0.0 0.00 0.00 0.00 99 1022.7
20260902224502 67 358 0.0 0.0 0.00 0.00 0.00 99 1022.9
20260902223954 67 358 0.0 0.0 0.00 0.00 0.00 99 1023.1
20260902223449 68 358 0.0 0.0 0.00 0.00 0.00 99 1023.0
20260902222948 68 358 0.0 0.0 0.00 0.00 0.00 99 1022.9
20260902222446 68 358 0.0 0.0 0.00 0.00 0.00 98 1023.1
20260902221941 68 358 0.0 0.0 0.00 0.00 0.00 97 1023.2
20260902221439 68 358 0.0 0.0 0.00 0.00 0.00 96 1023.0
20260902220935 69 358 0.0 0.0 0.00 0.00 0.00 96 1023.0
20260902220429 69 358 0.0 0.0 0.00 0.00 0.00 97 1022.8
20260902215925 69 358 0.0 0.0 0.00 0.00 0.00 98 1022.8
20260902215420 68 358 0.0 0.0 0.00 0.00 0.00 96 1023.0
20260902214916 68 358 0.0 0.0 0.00 0.00 0.00 97 1022.8
20260902214415 68 358 0.0 0.0 0.00 0.00 0.00 97 1023.2
20260902213909 68 358 1.0 1.0 0.00 0.00 0.00 92 1023.2
20260902213406 68 358 0.0 0.0 0.00 0.00 0.00 93 1023.6
20260902212904 68 358 0.0 0.0 0.00 0.00 0.00 96 1023.7
20260902212400 68 358 0.0 0.0 0.00 0.00 0.00 94 1023.6
20260902211857 69 295 0.0 0.0 0.00 0.00 0.00 96 1023.2
20260902211352 69 295 0.0 0.0 0.00 0.00 0.00 96 1023.0
20260902210847 69 295 0.0 0.0 0.00 0.00 0.00 95 1023.2
20260902210346 69 295 0.0 0.0 0.00 0.00 0.00 94 1023.0
20260902205845 69 295 0.0 0.0 0.00 0.00 0.00 93 1023.2
20260902205339 69 295 1.0 2.0 0.00 0.00 0.00 88 1023.1
20260902204835 69 215 2.0 2.0 0.00 0.00 0.00 89 1023.1
20260902204329 69 216 1.0 2.0 0.00 0.00 0.00 90 1022.8
20260902203825 69 250 0.0 0.0 0.00 0.00 0.00 94 1023.1
20260902203320 69 250 0.0 0.0 0.00 0.00 0.00 94 1023.3
20260902202819 69 250 0.0 0.0 0.00 0.00 0.00 92 1023.1
20260902202316 68 211 0.0 0.0 0.00 0.00 0.00 90 1023.1
20260902201812 68 221 1.0 1.0 0.00 0.00 0.00 87 1022.8
20260902201307 68 16 2.0 2.0 0.00 0.00 0.00 88 1023.2
20260902200803 69 306 1.0 1.0 0.00 0.00 0.00 89 1023.1
20260902200257 69 202 0.0 0.0 0.00 0.00 0.00 93 1023.1
20260902195753 69 206 2.0 3.0 0.00 0.00 0.00 88 1023.1
20260902195252 69 214 0.0 1.0 0.00 0.00 0.00 89 1022.9
20260902194752 69 209 0.0 0.0 0.00 0.00 0.00 89 1023.0
20260902194247 68 348 0.0 0.0 0.00 0.00 0.00 93 1023.1
20260902193743 68 348 0.0 0.0 0.00 0.00 0.00 93 1023.3
20260902193238 68 347 0.0 0.0 0.00 0.00 0.00 94 1023.2
20260902192737 67 346 1.0 1.0 0.00 0.00 0.00 89 1023.4
20260902192236 68 214 1.0 2.0 0.00 0.00 0.00 87 1023.3
20260902191731 68 192 2.0 2.0 0.00 0.00 0.00 87 1023.4
20260902191231 68 304 0.0 0.0 0.00 0.00 0.00 90 1023.2
20260902190726 69 354 1.0 2.0 0.00 0.00 0.00 87 1023.4
20260902190220 68 313 1.0 1.0 0.00 0.00 0.00 89 1023.3
20260902185716 68 356 1.0 2.0 0.00 0.00 0.00 90 1023.1
20260902185212 68 210 1.0 2.0 0.00 0.00 0.00 88 1023.5
20260902184712 68 188 1.0 1.0 0.00 0.00 0.00 88 1023.2
20260902184208 68 352 0.0 0.0 0.00 0.00 0.00 90 1023.1
20260902183704 68 64 0.0 0.0 0.00 0.00 0.00 93 1023.4
20260902183200 67 205 1.0 1.0 0.00 0.00 0.00 92 1023.5
20260902182656 67 3 1.0 1.0 0.00 0.00 0.00 92 1023.7
20260902182152 66 9 0.0 0.0 0.00 0.00 0.00 92 1023.8
20260902181648 66 356 0.0 0.0 0.00 0.00 0.00 97 1023.8
20260902181147 66 359 0.0 0.0 0.00 0.00 0.00 99 1023.9
20260902180642 66 358 0.0 0.0 0.00 0.00 0.00 97 1023.8
20260902180138 67 357 0.0 0.0 0.00 0.00 0.00 98 1024.4
20260902175638 67 357 0.0 0.0 0.00 0.00 0.00 97 1024.2
20260902175134 67 357 0.0 0.0 0.00 0.00 0.00 94 1024.1
20260902174630 67 357 0.0 0.0 0.00 0.00 0.00 93 1023.8
20260902174125 67 357 0.0 0.0 0.00 0.00 0.00 93 1023.9
20260902173620 68 357 0.0 0.0 0.00 0.00 0.00 92 1023.8
20260902173116 69 217 0.0 0.0 0.00 0.00 0.00 94 1023.9
20260902172615 69 216 0.0 0.0 0.00 0.00 0.00 89 1023.9
20260902172109 69 215 0.0 0.0 0.00 0.00 0.00 94 1023.9
20260902171605 69 215 0.0 0.0 0.00 0.00 0.00 92 1024.0
20260902171101 68 206 1.0 1.0 0.00 0.00 0.00 84 1024.1
20260902170556 69 312 1.0 1.0 0.00 0.00 0.00 85 1024.2
20260902170052 69 253 0.0 0.0 0.00 0.00 0.00 88 1024.1
20260902165551 69 339 0.0 0.0 0.00 0.00 0.00 90 1024.4
20260902165046 68 346 0.0 1.0 0.00 0.00 0.00 88 1024.2
20260902164541 68 341 0.0 0.0 0.00 0.00 0.00 88 1024.3
20260902164040 68 341 0.0 0.0 0.00 0.00 0.00 86 1024.2
20260902163536 68 11 0.0 0.0 0.00 0.00 0.00 91 1024.3
20260902163033 68 340 0.0 0.0 0.00 0.00 0.00 91 1024.5
20260902162528 68 341 0.0 0.0 0.00 0.00 0.00 93 1024.5
20260902162023 67 346 0.0 0.0 0.00 0.00 0.00 90 1024.4
20260902161518 67 358 0.0 0.0 0.00 0.00 0.00 91 1024.4
20260902161014 67 231 2.0 2.0 0.00 0.00 0.00 87 1024.4
20260902160510 67 295 0.0 0.0 0.00 0.00 0.00 86 1024.6
20260902160010 68 338 1.0 1.0 0.00 0.00 0.00 88 1024.4
20260902155503 68 343 0.0 0.0 0.00 0.00 0.00 94 1024.6
20260902155002 68 345 0.0 0.0 0.00 0.00 0.00 95 1024.4
20260902154457 67 343 0.0 1.0 0.00 0.00 0.00 86 1024.4
20260902153952 67 8 0.0 0.0 0.00 0.00 0.00 89 1024.4
20260902153450 67 350 0.0 0.0 0.00 0.00 0.00 92 1024.2
20260902152946 67 343 0.0 0.0 0.00 0.00 0.00 92 1024.2
20260902152442 67 1 0.0 0.0 0.00 0.00 0.00 92 1024.0
20260902151937 67 12 0.0 0.0 0.00 0.00 0.00 89 1024.1
20260902151433 67 351 1.0 1.0 0.00 0.00 0.00 89 1024.1
20260902150926 66 346 2.0 2.0 0.00 0.00 0.00 89 1024.3
20260902150423 66 37 0.0 0.0 0.00 0.00 0.00 91 1024.6
20260902145923 67 236 0.0 0.0 0.00 0.00 0.00 91 1024.7
20260902145418 66 236 0.0 0.0 0.00 0.00 0.00 92 1024.9
20260902144913 66 357 0.0 0.0 0.00 0.00 0.00 92 1024.9
20260902144409 66 349 0.0 0.0 0.00 0.00 0.00 93 1024.8
20260902143909 66 359 0.0 0.0 0.00 0.00 0.00 93 1024.8
20260902143404 66 353 0.0 0.0 0.00 0.00 0.00 92 1025.0
20260902142859 66 342 0.0 1.0 0.00 0.00 0.00 88 1025.0
20260902142355 66 352 0.0 1.0 0.00 0.00 0.00 89 1024.8
20260902141850 66 348 0.0 0.0 0.00 0.00 0.00 95 1024.7
20260902141345 66 344 0.0 1.0 0.00 0.00 0.00 91 1024.4
20260902140845 66 347 0.0 0.0 0.00 0.00 0.00 94 1024.5
20260902140340 66 10 0.0 0.0 0.00 0.00 0.00 92 1024.4
20260902135834 65 191 1.0 1.0 0.00 0.00 0.00 91 1024.5
20260902135330 65 354 0.0 1.0 0.00 0.00 0.00 94 1024.5
20260902134829 65 350 0.0 0.0 0.00 0.00 0.00 94 1024.9
20260902134325 64 350 0.0 0.0 0.00 0.00 0.00 95 1024.6
20260902133820 64 354 0.0 0.0 0.00 0.00 0.00 96 1024.3
20260902133320 64 340 0.0 0.0 0.00 0.00 0.00 96 1024.4
20260902132815 64 292 0.0 1.0 0.00 0.00 0.00 93 1024.4
20260902132310 63 52 0.0 0.0 0.00 0.00 0.00 95 1024.4
20260902131805 63 350 3.0 5.0 0.00 0.00 0.00 93 1024.4
20260902131302 63 346 2.0 2.0 0.00 0.00 0.00 92 1024.4
20260902130801 63 205 1.0 2.0 0.00 0.00 0.00 94 1024.1
20260902130257 63 354 1.0 1.0 0.00 0.00 0.00 94 1024.2
20260902125752 63 18 0.0 0.0 0.00 0.00 0.00 96 1023.8
20260902125248 62 323 1.0 1.0 0.00 0.00 0.00 95 1024.0
20260902124744 62 255 1.0 2.0 0.00 0.00 0.00 94 1023.8
20260902124240 62 317 2.0 2.0 0.00 0.00 0.00 94 1024.0
20260902123735 62 352 3.0 5.0 0.00 0.00 0.00 93 1023.9
20260902123231 62 4 0.0 0.0 0.00 0.00 0.00 94 1023.9
20260902122729 62 55 0.0 0.0 0.00 0.00 0.00 94 1024.0
20260902122226 62 5 0.0 0.0 0.00 0.00 0.00 93 1024.1
20260902121725 62 337 1.0 1.0 0.00 0.00 0.00 93 1023.7
20260902121221 62 265 0.0 0.0 0.00 0.00 0.00 94 1023.8
20260902120716 62 303 2.0 2.0 0.00 0.00 0.00 93 1024.0
20260902120213 62 312 0.0 1.0 0.00 0.00 0.00 94 1023.7
20260902115712 62 298 0.0 0.0 0.00 0.00 0.00 96 1023.6
20260902115209 62 271 2.0 6.0 0.00 0.00 0.00 93 1023.7
20260902114704 62 185 0.0 1.0 0.00 0.00 0.00 92 1023.7
20260902114200 62 352 0.0 0.0 0.00 0.00 0.00 96 1023.4
20260902113655 61 298 1.0 2.0 0.00 0.00 0.00 95 1023.7
20260902113150 61 243 0.0 1.0 0.00 0.00 0.00 97 1023.8
20260902112649 61 265 0.0 0.0 0.00 0.00 0.00 98 1023.9
20260902112147 61 228 0.0 1.0 0.00 0.00 0.00 96 1024.2
20260902111642 61 3 2.0 2.0 0.00 0.00 0.00 96 1024.1
20260902111138 61 7 0.0 0.0 0.00 0.00 0.00 99 1024.1
20260902110633 60 356 0.0 0.0 0.00 0.00 0.00 99 1024.5
20260902110130 61 356 0.0 0.0 0.00 0.00 0.00 99 1024.6
20260902105629 61 356 0.0 0.0 0.00 0.00 0.00 99 1024.3
20260902105124 61 356 0.0 0.0 0.00 0.00 0.00 99 1024.1
20260902104619 61 357 0.0 0.0 0.00 0.00 0.00 99 1024.2
20260902104114 61 357 0.0 0.0 0.00 0.00 0.00 99 1024.1
20260902103614 61 357 0.0 0.0 0.00 0.00 0.00 99 1024.0
20260902103110 61 357 0.0 0.0 0.00 0.00 0.00 99 1024.2
20260902102606 61 2 0.0 0.0 0.00 0.00 0.00 99 1023.9
20260902102103 61 2 0.0 0.0 0.00 0.00 0.00 99 1024.1
20260902101558 61 2 0.0 0.0 0.00 0.00 0.00 99 1023.9
20260902101057 62 2 0.0 0.0 0.00 0.00 0.00 99 1023.9
20260902100551 62 2 0.0 0.0 0.00 0.00 0.00 99 1023.8
20260902100046 62 2 0.0 0.0 0.00 0.00 0.00 99 1023.7
20260902095540 62 2 0.0 0.0 0.00 0.00 0.00 99 1023.5
20260902095039 62 2 0.0 0.0 0.00 0.00 0.00 99 1023.2
20260902094535 62 2 0.0 0.0 0.00 0.00 0.00 99 1023.5
20260902094030 62 2 0.0 0.0 0.00 0.00 0.00 99 1023.4
20260902093524 62 2 0.0 0.0 0.00 0.00 0.00 99 1023.7
20260902093020 62 2 0.0 0.0 0.00 0.00 0.00 99 1023.6
20260902092514 62 2 0.0 0.0 0.00 0.00 0.00 99 1023.5
20260902092009 62 2 0.0 0.0 0.00 0.00 0.00 99 1023.5
20260902091504 62 2 0.0 0.0 0.00 0.00 0.00 99 1023.1
20260902091001 62 2 0.0 0.0 0.00 0.00 0.00 99 1023.4
20260902090456 62 2 0.0 0.0 0.00 0.00 0.00 99 1023.2
20260902085954 62 2 0.0 0.0 0.00 0.00 0.00 99 1023.2
20260902085450 62 2 0.0 0.0 0.00 0.00 0.00 99 1023.1
20260902084944 62 2 0.0 0.0 0.00 0.00 0.00 99 1022.9
20260902084442 62 2 0.0 0.0 0.00 0.00 0.00 99 1022.8
20260902083937 62 1 0.0 0.0 0.00 0.00 0.00 99 1022.9
20260902083436 62 2 0.0 0.0 0.00 0.00 0.00 99 1023.0
20260902082931 62 2 0.0 0.0 0.00 0.00 0.00 99 1023.1
20260902082427 62 2 0.0 0.0 0.00 0.00 0.00 99 1022.9
20260902081923 62 2 0.0 0.0 0.00 0.00 0.00 99 1023.0
20260902081420 62 2 0.0 0.0 0.00 0.00 0.00 99 1022.9
20260902080914 62 2 0.0 0.0 0.00 0.00 0.00 99 1022.7
20260902080410 62 2 0.0 0.0 0.00 0.00 0.00 99 1023.1
20260902075909 62 2 0.0 0.0 0.00 0.00 0.00 99 1023.1
20260902075406 62 2 0.0 0.0 0.00 0.00 0.00 99 1023.1
20260902074901 62 2 0.0 0.0 0.00 0.00 0.00 99 1023.3
20260902074357 62 2 0.0 0.0 0.00 0.00 0.00 99 1023.1
20260902073851 62 2 0.0 0.0 0.00 0.00 0.00 99 1023.2
20260902073348 62 2 0.0 0.0 0.00 0.00 0.00 99 1023.1
20260902072844 62 2 0.0 0.0 0.00 0.00 0.00 99 1022.8
20260902072339 62 2 0.0 0.0 0.00 0.00 0.00 99 1023.1
20260902071836 62 2 0.0 0.0 0.00 0.00 0.00 99 1023.0
20260902071329 62 2 0.0 0.0 0.00 0.00 0.00 99 1023.1
20260902070826 62 1 0.0 0.0 0.00 0.00 0.00 99 1023.0
20260902070326 62 346 0.0 0.0 0.00 0.00 0.00 99 1023.0
20260902065825 62 356 0.0 0.0 0.00 0.00 0.00 99 1023.4
20260902065320 62 356 0.0 0.0 0.00 0.00 0.00 99 1023.3
20260902064815 62 356 0.0 0.0 0.00 0.00 0.00 99 1023.3
20260902064312 62 356 0.0 0.0 0.00 0.00 0.00 99 1023.6
20260902063807 62 356 0.0 0.0 0.00 0.00 0.00 99 1023.4
20260902063307 62 5 0.0 0.0 0.00 0.00 0.00 99 1023.3
20260902062801 62 5 0.0 0.0 0.00 0.00 0.00 99 1023.4
20260902062256 62 5 0.0 0.0 0.00 0.00 0.00 99 1023.6
20260902061755 62 5 0.0 0.0 0.00 0.00 0.00 99 1023.3
20260902061250 62 5 0.0 0.0 0.00 0.00 0.00 99 1023.3
20260902060748 62 5 0.0 0.0 0.00 0.00 0.00 99 1023.4
20260902060243 62 5 0.0 0.0 0.00 0.00 0.00 99 1023.2
20260902055738 62 5 0.0 0.0 0.00 0.00 0.00 99 1023.5
20260902055234 62 5 0.0 0.0 0.00 0.00 0.00 99 1023.3
20260902054729 62 5 0.0 0.0 0.00 0.00 0.00 99 1022.9
20260902054225 62 5 0.0 0.0 0.00 0.00 0.00 99 1023.1
20260902053720 62 5 0.0 0.0 0.00 0.00 0.00 99 1022.8
20260902053220 62 7 0.0 0.0 0.00 0.00 0.00 99 1022.8
20260902052719 62 16 0.0 0.0 0.00 0.00 0.00 99 1022.8
20260902052215 62 16 0.0 0.0 0.00 0.00 0.00 99 1022.8
20260902051714 62 16 0.0 0.0 0.00 0.00 0.00 99 1022.7
20260902051209 62 353 0.0 0.0 0.00 0.00 0.00 99 1022.6
20260902050703 62 353 0.0 0.0 0.00 0.00 0.00 99 1022.6
20260902050159 62 353 0.0 0.0 0.00 0.00 0.00 99 1022.6
20260902045653 62 353 0.0 0.0 0.00 0.00 0.00 99 1022.6
20260902045149 62 352 0.0 0.0 0.00 0.00 0.00 99 1022.7
20260902044644 62 353 0.0 0.0 0.00 0.00 0.00 99 1022.4
20260902044140 62 353 0.0 0.0 0.00 0.00 0.00 99 1022.5
20260902043635 62 353 0.0 0.0 0.00 0.00 0.00 99 1022.5
20260902043130 62 28 0.0 0.0 0.00 0.00 0.00 99 1022.4
20260902042629 62 28 0.0 0.0 0.00 0.00 0.00 99 1022.4
20260902042125 62 28 0.0 0.0 0.00 0.00 0.00 99 1022.5
20260902041625 62 28 0.0 0.0 0.00 0.00 0.00 99 1022.5
20260902041119 62 28 0.0 0.0 0.00 0.00 0.00 99 1022.4
20260902040619 62 28 0.0 0.0 0.00 0.00 0.00 99 1022.1
20260902040114 62 7 0.0 0.0 0.00 0.00 0.00 99 1022.2
20260902035612 62 7 0.0 0.0 0.00 1.19 1.19 99 1022.1
20260902035108 61 7 0.0 0.0 0.00 1.19 1.19 99 1022.0
20260902034607 62 357 0.0 0.0 0.00 1.19 1.19 99 1021.6
20260902034101 62 3 0.0 0.0 0.00 1.19 1.19 99 1021.7
20260902033600 62 3 0.0 0.0 0.00 1.19 1.19 99 1021.8
20260902033055 62 3 0.0 0.0 0.00 1.19 1.19 99 1021.9
20260902032554 62 3 0.0 0.0 0.00 1.19 1.19 99 1021.7